Погода в Верном

Россия / Амурская область     51°11′23″N   128°41′43″E
темп.,
°C
ветер,
м/с
пор.,
м/с
влажн.,
%
обл.,
%
осадки,
мм/ч
давл.,
гПа
погр.,
м
13 мая, чт
чт1300:00+8вюв71392100 2.4 998777
03:00+8вюв4895100 7.4 997484
06:00+8юв358891 1.6 998229
09:00+8юв2494100 2.8 999280
12:00+9з2388100 1.4 1000249
15:00+9зсз5786100 2.4 1002553
18:00+9сз6986100 0.6 1004745
21:00+8сз379094 0.7 1007338
14 мая, пт
пт1400:00+6з229585 0.0 100837
03:00+5ююз119488 0.0 100810
06:00+6юв3593100 0.0 1008148
09:00+9юв71283100 0.0 1006422
12:00+12юв91572100 0.0 1003566
15:00+11юв41191100 3.4 1002591
18:00+11ю5789100 3.9 1000449
21:00+9ююз3796100 4.0 1001171
15 мая, сб
сб1500:00+7юз369733 0.1 1000132
03:00+6зюз229110 0.1 100019
06:00+7юз35855 0.0 999202
09:00+9з6873100 0.1 9991153
12:00+7з6984100 0.3 9991196
15:00+7з61087100 0.8 9991085
18:00+8зсз61186100 0.3 10001193
21:00+7сз498982 0.5 1002437
16 мая, вс
вс1600:00+6з3894100 0.1 1003222
03:00+7зсз51192100 1.4 1003678
06:00+7зсз6118971 0.3 1004549
09:00+10сз69715 0.3 1004937
12:00+14сз795131 0.0 10041825
15:00+17сз693917 0.0 10032458
18:00+17зсз47445 0.0 1003640
21:00+12юз11530 0.0 100310
17 мая, пн
пн1700:00+10ююз46605 0.0 100373
03:00+9ю48685 0.0 1001110
06:00+9зюз4126325 0.0 1000283
09:00+15сз813504 0.0 10011010
12:00+18сз9113783 0.0 10031955
15:00+18сз79331 0.0 10032048
18:00+17сз4637100 0.0 10031429
21:00+12с22478 0.0 100512